Location: Newark
(38.0892°N, 27.7378°E)
Time: 23:03:51
(UTC+00:00)

N. Korean satellite - Pass Details

Date: 16 December 2019
Orbit: 454 x 507 km, 97.2° (Epoch: 21 January)

Event Time Altitude Azimuth Distance (km) Brightness Sun altitude
Rises 04:02:03 0° 10° (N) 2,513 10.1 -14.6°
Reaches altitude 10° 04:04:07 10° 9° (N) 1,624 9.1 -14.2°
Maximum altitude 04:07:35 79° 283° (WNW) 473 6.3 -13.5°
Drops below altitude 10° 04:11:00 10° 196° (SSW) 1,591 9.2 -12.9°
Sets 04:13:01 0° 195° (SSW) 2,456 10.2 -12.5°
